Location: Wavehorne
(51.0500°N, 0.8333°E)
Time: 17:15:08
(UTC+00:00)

NOSS 2-2 (C) - Pass Details

Date: 30 October 2021
Orbit: 450 x 1755 km, 63.3° (Epoch: 01 December)

Event Time Altitude Azimuth Distance (km) Brightness Sun altitude
Rises 18:40:57 0° 220° (SW) 2,462 7.2 -20.4°
Reaches altitude 10° 18:43:00 10° 220° (SW) 1,580 6.1 -20.7°
Enters shadow 18:46:10 77° 189° (S) 484 2.9 -21.2°
